Newport Airport, OR

6:18 AM PDT on June 22, 2017 (GMT -0700)
Newport Municipal

Weather History for KONP - January, 2014

Change the Weather History Date:

Sunday, January 12, 2014

  Actual Average Record
Temperature  
Mean Temperature 48 °F -  
Max Temperature 50 °F 48 °F 55 °F (2009)
Min Temperature 46 °F 40 °F 26 °F (2007)
Degree Days  
Heating Degree Days 17    
Moisture  
Dew Point 46 °F    
Average Humidity 94    
Maximum Humidity 100    
Minimum Humidity 87    
Precipitation  
Precipitation 0.38 in - - ()
Sea Level Pressure  
Sea Level Pressure 30.37 in    
Wind  
Wind Speed 13 mph (SW)    
Max Wind Speed 23 mph    
Max Gust Speed 33 mph    
Visibility 2 miles    
Events Rain    
Averages and records for this station are not official NWS values.
T = Trace of Precipitation, MM = Missing Value Source: NWS Daily Summary

Daily Weather History Graph

Daily Weather History Graph

Search for Another Location

Airport or City:

Trip Planner

Search our weather history database for the weather conditions in past years. The results will help you decide how hot, cold, wet, or windy it might be!

Date:

Astronomy

Jan. 12, 2014 Rise Set
Actual Time 7:50 AM PST 4:58 PM PST
Civil Twilight 7:18 AM PST 5:31 PM PST
Nautical Twilight 6:42 AM PST 6:07 PM PST
Astronomical Twilight 6:07 AM PST 6:42 PM PST
Moon 2:31 PM PST (1/12) 4:53 AM PST (1/12)
Length of Visible Light 10h 13m
Length of Day
9h 07m
Waxing Gibbous, 90% of the Moon is Illuminated
Jan 12
Waxing Gibbous
Jan 15
Full
Jan 23
Last Quarter
Jan 30
New
Feb 6
First Quarter

Hourly Weather History & Observations

Time (PST) Temp. Windchill Dew Point Humidity Pressure Visibility Wind Dir Wind Speed Gust Speed Precip Events Conditions
12:15 AM 46.4 °F 40.7 °F 42.8 °F 87% 30.18 in 3.0 mi West 12.7 mph - 0.01 in   Overcast
12:35 AM 46.4 °F 40.7 °F 42.8 °F 87% 30.19 in 3.0 mi WSW 12.7 mph 17.3 mph 0.01 in   Overcast
12:55 AM 46.4 °F 41.1 °F 42.8 °F 87% 30.19 in 4.0 mi West 11.5 mph 18.4 mph 0.01 in   Scattered Clouds
1:15 AM 46.4 °F 41.5 °F 42.8 °F 87% 30.20 in 3.0 mi WSW 10.4 mph 17.3 mph N/A   Clear
1:35 AM 46.4 °F 41.9 °F 42.8 °F 87% 30.21 in 3.0 mi SW 9.2 mph 18.4 mph N/A   Scattered Clouds
1:55 AM 46.4 °F 41.5 °F 44.6 °F 93% 30.22 in 3.0 mi SW 10.4 mph - N/A   Overcast
2:15 AM 46.4 °F 40.7 °F 44.6 °F 93% 30.22 in 3.0 mi SW 12.7 mph - N/A   Mostly Cloudy
2:35 AM 46.4 °F 40.1 °F 44.6 °F 93% 30.23 in 3.0 mi SW 15.0 mph - N/A   Scattered Clouds
2:55 AM 46.4 °F 40.4 °F 44.6 °F 93% 30.22 in 3.0 mi SSW 13.8 mph - N/A   Overcast
3:15 AM 46.4 °F 40.4 °F 44.6 °F 93% 30.24 in 3.0 mi SW 13.8 mph 20.7 mph N/A   Overcast
3:35 AM 46.4 °F 40.4 °F 44.6 °F 93% 30.24 in 3.0 mi SW 13.8 mph 19.6 mph N/A   Overcast
3:55 AM 46.4 °F 40.4 °F 44.6 °F 93% 30.24 in 4.0 mi SW 13.8 mph 25.3 mph N/A Rain Light Rain
4:15 AM 46.4 °F 39.8 °F 44.6 °F 93% 30.24 in 3.0 mi SW 16.1 mph 20.7 mph N/A   Overcast
4:35 AM 46.4 °F 39.8 °F 44.6 °F 93% 30.24 in 3.0 mi SSW 16.1 mph 21.9 mph N/A   Drizzle
4:55 AM 46.4 °F 39.0 °F 44.6 °F 93% 30.25 in 3.0 mi SW 19.6 mph 26.5 mph N/A Rain Rain
5:15 AM 46.4 °F 40.1 °F 42.8 °F 87% 30.26 in 3.0 mi SW 15.0 mph - 0.02 in Rain Rain
5:35 AM 46.4 °F 39.5 °F 42.8 °F 87% 30.25 in 3.0 mi SSW 17.3 mph 23.0 mph 0.04 in Rain Light Rain
5:55 AM 46.4 °F 39.8 °F 42.8 °F 87% 30.25 in 3.0 mi SSW 16.1 mph - 0.06 in Rain Light Rain
6:15 AM 46.4 °F 39.2 °F 44.6 °F 93% 30.25 in 3.0 mi SSW 18.4 mph - 0.02 in Rain Light Rain
6:35 AM 46.4 °F 39.2 °F 44.6 °F 93% 30.25 in 2.5 mi SSW 18.4 mph 26.5 mph 0.05 in Rain Rain
6:55 AM 46.4 °F 38.7 °F 44.6 °F 93% 30.25 in 2.5 mi SSW 20.7 mph 26.5 mph 0.09 in Rain Light Rain
7:15 AM 46.4 °F 38.7 °F 44.6 °F 93% 30.25 in 2.0 mi SSW 20.7 mph - 0.03 in Rain Light Rain
7:35 AM 46.4 °F 38.5 °F 46.4 °F 100% 30.26 in 1.8 mi SSW 21.9 mph 29.9 mph 0.06 in Rain Rain
7:55 AM 46.4 °F 38.3 °F 46.4 °F 100% 30.26 in 1.8 mi SSW 23.0 mph 32.2 mph 0.11 in Rain Rain
8:15 AM 46.4 °F 38.7 °F 46.4 °F 100% 30.28 in 1.8 mi SSW 20.7 mph 33.4 mph 0.02 in Rain Rain
8:35 AM 46.4 °F 38.7 °F 46.4 °F 100% 30.28 in 1.5 mi SW 20.7 mph 28.8 mph 0.04 in Rain Light Rain
8:55 AM 46.4 °F 39.5 °F 46.4 °F 100% 30.30 in 0.8 mi SW 17.3 mph 25.3 mph 0.06 in Rain Light Rain
9:15 AM 46.4 °F 40.1 °F 46.4 °F 100% 30.31 in 0.8 mi SW 15.0 mph 21.9 mph N/A   Light Drizzle
9:35 AM 48.2 °F - 46.4 °F 93% 30.32 in 1.0 mi SW 13.8 mph 18.4 mph N/A   Overcast
9:55 AM 48.2 °F - 48.2 °F 100% 30.33 in 1.2 mi SW 13.8 mph 20.7 mph N/A   Overcast
10:15 AM 48.2 °F - 48.2 °F 100% 30.34 in 1.5 mi SW 12.7 mph 20.7 mph N/A   Overcast
10:35 AM 48.2 °F - 48.2 °F 100% 30.36 in 1.5 mi SW 11.5 mph 19.6 mph N/A   Overcast
10:55 AM 48.2 °F - 48.2 °F 100% 30.36 in 1.5 mi SW 11.5 mph 17.3 mph N/A   Overcast
11:15 AM 48.2 °F - 48.2 °F 100% 30.37 in 1.2 mi SW 10.4 mph - N/A   Overcast
11:35 AM 48.2 °F - 48.2 °F 100% 30.37 in 1.2 mi SW 11.5 mph - N/A   Overcast
11:55 AM 48.2 °F - 48.2 °F 100% 30.37 in 1.2 mi SW 11.5 mph 17.3 mph N/A   Overcast
12:15 PM 48.2 °F - 48.2 °F 100% 30.37 in 1.2 mi SW 11.5 mph - N/A   Overcast
12:35 PM 50.0 °F - 48.2 °F 94% 30.36 in 1.2 mi SW 10.4 mph - N/A   Overcast
12:55 PM 50.0 °F - 48.2 °F 94% 30.37 in 1.2 mi SW 10.4 mph - N/A   Overcast
1:15 PM 50.0 °F - 48.2 °F 94% 30.37 in 1.5 mi WSW 6.9 mph - N/A   Overcast
1:35 PM 50.0 °F - 48.2 °F 94% 30.38 in 1.5 mi WSW 8.1 mph - N/A   Overcast
1:55 PM 50.0 °F - 48.2 °F 94% 30.37 in 1.5 mi WSW 8.1 mph - N/A   Overcast
2:15 PM 50.0 °F - 48.2 °F 94% 30.38 in 1.5 mi SW 6.9 mph - N/A   Overcast
2:35 PM 50.0 °F - 48.2 °F 94% 30.39 in 1.2 mi SW 8.1 mph - N/A   Overcast
2:55 PM 50.0 °F - 48.2 °F 94% 30.40 in 1.2 mi SW 8.1 mph - N/A   Overcast
3:15 PM 50.0 °F - 48.2 °F 94% 30.41 in 1.2 mi WSW 6.9 mph - N/A   Overcast
3:35 PM 48.2 °F - 48.2 °F 100% 30.41 in 1.5 mi SW 8.1 mph - N/A   Overcast
3:55 PM 50.0 °F - 48.2 °F 94% 30.43 in 1.0 mi WSW 8.1 mph - N/A Rain Rain
4:15 PM 48.2 °F - 48.2 °F 100% 30.44 in 0.5 mi SW 10.4 mph - 0.03 in   Heavy Drizzle
4:35 PM 48.2 °F - 48.2 °F 100% 30.44 in 0.5 mi SW 10.4 mph - 0.04 in   Light Drizzle
4:55 PM 48.2 °F - 48.2 °F 100% 30.44 in 0.8 mi SW 9.2 mph - 0.04 in   Overcast
5:15 PM 48.2 °F - 48.2 °F 100% 30.45 in 1.5 mi SW 9.2 mph - N/A   Overcast
5:35 PM 48.2 °F - 48.2 °F 100% 30.46 in 1.8 mi SW 8.1 mph - N/A   Overcast
5:55 PM 48.2 °F - 46.4 °F 93% 30.47 in 1.8 mi SSW 8.1 mph - N/A   Overcast
6:15 PM 48.2 °F - 46.4 °F 93% 30.47 in 1.8 mi SSW 8.1 mph - N/A Rain Light Rain
6:35 PM 48.2 °F - 46.4 °F 93% 30.48 in 1.8 mi SSW 8.1 mph - 0.01 in Rain Rain
6:55 PM 48.2 °F - 46.4 °F 93% 30.48 in 1.8 mi SSW 8.1 mph - 0.01 in   Overcast
7:15 PM 48.2 °F - 46.4 °F 93% 30.49 in 2.0 mi SSW 10.4 mph - N/A   Overcast
7:35 PM 48.2 °F - 46.4 °F 93% 30.50 in 2.0 mi SSW 9.2 mph - N/A   Overcast
7:55 PM 48.2 °F - 46.4 °F 93% 30.51 in 2.0 mi SSW 10.4 mph - N/A   Overcast
8:15 PM 48.2 °F - 46.4 °F 93% 30.51 in 2.0 mi SSW 10.4 mph - N/A   Overcast
8:35 PM 48.2 °F - 46.4 °F 93% 30.52 in 2.5 mi SW 9.2 mph - N/A   Overcast
8:55 PM 48.2 °F - 46.4 °F 93% 30.52 in 2.5 mi SSW 9.2 mph - N/A   Overcast
9:15 PM 48.2 °F - 46.4 °F 93% 30.53 in 2.0 mi SW 8.1 mph - N/A   Overcast
9:35 PM 48.2 °F - 46.4 °F 93% 30.53 in 2.0 mi SSW 8.1 mph - N/A   Overcast
9:55 PM 48.2 °F - 46.4 °F 93% 30.55 in 2.0 mi SW 8.1 mph - N/A   Overcast
10:15 PM 48.2 °F - 46.4 °F 93% 30.55 in 2.0 mi SW 8.1 mph - N/A   Overcast
10:35 PM 48.2 °F - 46.4 °F 93% 30.56 in 2.5 mi SSW 9.2 mph - N/A   Overcast
10:55 PM 48.2 °F - 46.4 °F 93% 30.57 in 2.0 mi SSW 6.9 mph - N/A   Overcast
11:15 PM 48.2 °F - 46.4 °F 93% 30.57 in 3.0 mi SSW 6.9 mph - N/A   Overcast
11:35 PM 48.2 °F - 46.4 °F 93% 30.57 in 2.5 mi SSW 5.8 mph - N/A   Overcast
11:55 PM 48.2 °F - 46.4 °F 93% 30.57 in 3.0 mi WSW 6.9 mph - N/A   Overcast